| time (UTC) | temp C | wind direction | speed KPH | gust KPH | rain 1hr cm | rain 24hr cm | rain mn cm | humidity % | barometer mb |
| 20260503005730 | 25 | 240 | 6.4 | 12.9 | 0.00 | 0.00 | 0.00 | 2 | 1014.8 |
| 20260503005230 | 25 | 162 | 6.4 | 16.1 | 0.00 | 0.00 | 0.00 | 3 | 1014.8 |
| 20260503004731 | 25 | 266 | 4.8 | 16.1 | 0.00 | 0.00 | 0.00 | 3 | 1014.8 |
| 20260503004230 | 25 | 293 | 4.8 | 14.5 | 0.00 | 0.00 | 0.00 | 3 | 1014.8 |
| 20260503003727 | 25 | 247 | 6.4 | 16.1 | 0.00 | 0.00 | 0.00 | 3 | 1014.8 |
| 20260503002727 | 25 | 201 | 6.4 | 17.7 | 0.00 | 0.00 | 0.00 | 3 | 1014.9 |
| 20260503002227 | 25 | 215 | 3.2 | 14.5 | 0.00 | 0.00 | 0.00 | 2 | 1014.8 |
| 20260503001730 | 26 | 214 | 3.2 | 14.5 | 0.00 | 0.00 | 0.00 | 1 | 1014.9 |
| 20260503001235 | 26 | 221 | 3.2 | 14.5 | 0.00 | 0.00 | 0.00 | 1 | 1014.9 |
| 20260503000226 | 25 | 209 | 4.8 | 20.9 | 0.00 | 0.00 | 0.00 | 1 | 1014.9 |
| 20260502235721 | 25 | 203 | 4.8 | 17.7 | 0.00 | 0.00 | 0.00 | 1 | 1014.8 |
| 20260502235221 | 26 | 150 | 8.0 | 25.7 | 0.00 | 0.00 | 0.00 | 1 | 1014.6 |
| 20260502234723 | 26 | 136 | 8.0 | 25.7 | 0.00 | 0.00 | 0.00 | 1 | 1014.6 |
| 20260502234223 | 27 | 107 | 3.2 | 17.7 | 0.00 | 0.00 | 0.00 | 1 | 1014.6 |
| 20260502233721 | 27 | 269 | 4.8 | 16.1 | 0.00 | 0.00 | 0.00 | 1 | 1014.6 |
| 20260502233221 | 26 | 334 | 8.0 | 25.7 | 0.00 | 0.00 | 0.00 | 1 | 1014.8 |
| 20260502232721 | 26 | 149 | 6.4 | 25.7 | 0.00 | 0.00 | 0.00 | 1 | 1014.9 |
| 20260502232221 | 27 | 193 | 4.8 | 17.7 | 0.00 | 0.00 | 0.00 | 1 | 1014.8 |
| 20260502231721 | 26 | 107 | 4.8 | 14.5 | 0.00 | 0.00 | 0.00 | 1 | 1014.6 |
| 20260502231221 | 26 | 86 | 8.0 | 20.9 | 0.00 | 0.00 | 0.00 | 1 | 1014.9 |
| 20260502230221 | 26 | 103 | 6.4 | 22.5 | 0.00 | 0.00 | 0.00 | 1 | 1014.9 |
| 20260502225722 | 26 | 247 | 6.4 | 24.1 | 0.00 | 0.00 | 0.00 | 1 | 1014.9 |
| 20260502225220 | 26 | 133 | 4.8 | 24.1 | 0.00 | 0.00 | 0.00 | 1 | 1014.9 |
| 20260502224721 | 26 | 5 | 6.4 | 20.9 | 0.00 | 0.00 | 0.00 | 1 | 1014.9 |
| 20260502224222 | 26 | 157 | 8.0 | 25.7 | 0.00 | 0.00 | 0.00 | 1 | 1015.1 |
| 20260502223722 | 26 | 80 | 8.0 | 25.7 | 0.00 | 0.00 | 0.00 | 1 | 1015.0 |
| 20260502223226 | 26 | 216 | 6.4 | 17.7 | 0.00 | 0.00 | 0.00 | 1 | 1015.1 |
| 20260502222724 | 26 | 63 | 6.4 | 17.7 | 0.00 | 0.00 | 0.00 | 1 | 1015.3 |
| 20260502222226 | 26 | 104 | 6.4 | 22.5 | 0.00 | 0.00 | 0.00 | 1 | 1015.3 |
| 20260502221724 | 26 | 201 | 6.4 | 22.5 | 0.00 | 0.00 | 0.00 | 1 | 1015.3 |
| 20260502221224 | 26 | 90 | 8.0 | 16.1 | 0.00 | 0.00 | 0.00 | 1 | 1015.4 |
| 20260502220721 | 26 | 94 | 6.4 | 16.1 | 0.00 | 0.00 | 0.00 | 1 | 1015.6 |
| 20260502220223 | 26 | 204 | 4.8 | 12.9 | 0.00 | 0.00 | 0.00 | 1 | 1015.7 |
| 20260502215723 | 26 | 27 | 6.4 | 16.1 | 0.00 | 0.00 | 0.00 | 1 | 1015.8 |
| 20260502215221 | 26 | 110 | 4.8 | 16.1 | 0.00 | 0.00 | 0.00 | 1 | 1015.9 |
| 20260502213721 | 26 | 77 | 6.4 | 16.1 | 0.00 | 0.00 | 0.00 | 1 | 1016.2 |
| 20260502213221 | 26 | 222 | 4.8 | 16.1 | 0.00 | 0.00 | 0.00 | 1 | 1016.2 |
| 20260502212222 | 26 | 120 | 8.0 | 22.5 | 0.00 | 0.00 | 0.00 | 1 | 1016.4 |
| 20260502211722 | 26 | 82 | 6.4 | 16.1 | 0.00 | 0.00 | 0.00 | 1 | 1016.4 |
| 20260502211222 | 26 | 330 | 6.4 | 16.1 | 0.00 | 0.00 | 0.00 | 1 | 1016.5 |
| 20260502210720 | 26 | 99 | 4.8 | 11.3 | 0.00 | 0.00 | 0.00 | 1 | 1016.6 |
| 20260502210221 | 26 | 250 | 4.8 | 14.5 | 0.00 | 0.00 | 0.00 | 1 | 1016.6 |
| 20260502205722 | 25 | 21 | 3.2 | 14.5 | 0.00 | 0.00 | 0.00 | 1 | 1016.8 |
| 20260502205216 | 25 | 251 | 4.8 | 12.9 | 0.00 | 0.00 | 0.00 | 1 | 1016.8 |
| 20260502204716 | 25 | 11 | 8.0 | 19.3 | 0.00 | 0.00 | 0.00 | 1 | 1016.9 |
| 20260502204216 | 25 | 192 | 8.0 | 19.3 | 0.00 | 0.00 | 0.00 | 1 | 1016.9 |
| 20260502203715 | 25 | 292 | 6.4 | 16.1 | 0.00 | 0.00 | 0.00 | 1 | 1016.8 |
| 20260502203215 | 26 | 82 | 8.0 | 17.7 | 0.00 | 0.00 | 0.00 | 1 | 1017.0 |
| 20260502202716 | 26 | 89 | 4.8 | 17.7 | 0.00 | 0.00 | 0.00 | 1 | 1017.0 |
| 20260502201719 | 25 | 246 | 4.8 | 11.3 | 0.00 | 0.00 | 0.00 | 1 | 1017.0 |
| 20260502201216 | 25 | 284 | 6.4 | 14.5 | 0.00 | 0.00 | 0.00 | 1 | 1017.3 |
| 20260502200710 | 25 | 103 | 8.0 | 17.7 | 0.00 | 0.00 | 0.00 | 1 | 1017.4 |
| 20260502200210 | 25 | 84 | 9.7 | 20.9 | 0.00 | 0.00 | 0.00 | 1 | 1017.4 |
| 20260502195708 | 25 | 139 | 9.7 | 20.9 | 0.00 | 0.00 | 0.00 | 1 | 1017.5 |
| 20260502195210 | 25 | 107 | 8.0 | 19.3 | 0.00 | 0.00 | 0.00 | 1 | 1017.6 |
| 20260502194710 | 25 | 187 | 4.8 | 19.3 | 0.00 | 0.00 | 0.00 | 1 | 1017.6 |
| 20260502194209 | 25 | 113 | 6.4 | 17.7 | 0.00 | 0.00 | 0.00 | 1 | 1017.6 |
| 20260502193704 | 24 | 196 | 6.4 | 17.7 | 0.00 | 0.00 | 0.00 | 1 | 1017.6 |
| 20260502193157 | 24 | 46 | 6.4 | 14.5 | 0.00 | 0.00 | 0.00 | 1 | 1017.7 |
| 20260502192651 | 24 | 30 | 4.8 | 14.5 | 0.00 | 0.00 | 0.00 | 1 | 1017.8 |
| 20260502192149 | 25 | 100 | 6.4 | 12.9 | 0.00 | 0.00 | 0.00 | 1 | 1018.0 |
| 20260502191646 | 24 | 179 | 8.0 | 14.5 | 0.00 | 0.00 | 0.00 | 1 | 1018.0 |
| 20260502191146 | 24 | 54 | 6.4 | 14.5 | 0.00 | 0.00 | 0.00 | 1 | 1018.0 |
| 20260502190146 | 24 | 98 | 6.4 | 19.3 | 0.00 | 0.00 | 0.00 | 1 | 1018.1 |
| 20260502184644 | 23 | 9 | 4.8 | 12.9 | 0.00 | 0.00 | 0.00 | 1 | 1018.2 |
| 20260502184146 | 24 | 319 | 4.8 | 11.3 | 0.00 | 0.00 | 0.00 | 1 | 1018.3 |
| 20260502183645 | 24 | 20 | 4.8 | 11.3 | 0.00 | 0.00 | 0.00 | 1 | 1018.3 |
| 20260502183144 | 23 | 216 | 3.2 | 11.3 | 0.00 | 0.00 | 0.00 | 1 | 1018.4 |
| 20260502182649 | 23 | 58 | 4.8 | 16.1 | 0.00 | 0.00 | 0.00 | 1 | 1018.4 |
| 20260502182147 | 24 | 44 | 8.0 | 17.7 | 0.00 | 0.00 | 0.00 | 1 | 1018.4 |
| 20260502181144 | 24 | 353 | 4.8 | 16.1 | 0.00 | 0.00 | 0.00 | 1 | 1018.4 |
| 20260502180645 | 24 | 6 | 3.2 | 11.3 | 0.00 | 0.00 | 0.00 | 1 | 1018.6 |
| 20260502180139 | 24 | 41 | 3.2 | 16.1 | 0.00 | 0.00 | 0.00 | 1 | 1018.8 |
| 20260502164003 | 21 | 42 | 4.8 | 11.3 | 0.00 | 0.00 | 0.00 | 2 | 1019.0 |
| 20260502163458 | 21 | 82 | 4.8 | 9.7 | 0.00 | 0.00 | 0.00 | 2 | 1019.1 |
| 20260502162951 | 22 | 78 | 4.8 | 9.7 | 0.00 | 0.00 | 0.00 | 2 | 1019.0 |
| 20260502162445 | 22 | 297 | 3.2 | 12.9 | 0.00 | 0.00 | 0.00 | 2 | 1018.9 |
| 20260502161942 | 21 | 208 | 4.8 | 12.9 | 0.00 | 0.00 | 0.00 | 3 | 1019.0 |
| 20260502161434 | 20 | 75 | 4.8 | 12.9 | 0.00 | 0.00 | 0.00 | 4 | 1019.0 |
| 20260502160927 | 20 | 9 | 4.8 | 12.9 | 0.00 | 0.00 | 0.00 | 4 | 1019.0 |
| 20260502160421 | 20 | 69 | 4.8 | 12.9 | 0.00 | 0.00 | 0.00 | 4 | 1019.1 |
| 20260502152333 | 18 | 98 | 3.2 | 11.3 | 0.00 | 0.00 | 0.00 | 6 | 1019.1 |
| 20260502151830 | 18 | 76 | 4.8 | 11.3 | 0.00 | 0.00 | 0.00 | 7 | 1019.0 |
| 20260502150816 | 17 | 76 | 4.8 | 14.5 | 0.00 | 0.00 | 0.00 | 7 | 1018.9 |
| 20260502150309 | 17 | 25 | 4.8 | 14.5 | 0.00 | 0.00 | 0.00 | 7 | 1018.8 |
| 20260502130511 | 12 | 102 | 1.6 | 8.0 | 0.00 | 0.00 | 0.00 | 14 | 1018.3 |
| 20260502123001 | 12 | 206 | 3.2 | 4.8 | 0.00 | 0.00 | 0.00 | 16 | 1018.0 |
| 20260502122503 | 12 | 174 | 3.2 | 4.8 | 0.00 | 0.00 | 0.00 | 16 | 1017.8 |
| 20260502122000 | 11 | 143 | 1.6 | 4.8 | 0.00 | 0.00 | 0.00 | 17 | 1017.8 |
| 20260502121500 | 11 | 165 | 1.6 | 3.2 | 0.00 | 0.00 | 0.00 | 17 | 1017.7 |
| 20260502120458 | 11 | 170 | 0.0 | 3.2 | 0.00 | 0.00 | 0.00 | 17 | 1017.8 |
| 20260502114953 | 12 | 172 | 1.6 | 4.8 | 0.00 | 0.00 | 0.00 | 16 | 1017.7 |
| 20260502113954 | 12 | 158 | 1.6 | 3.2 | 0.00 | 0.00 | 0.00 | 17 | 1017.7 |
| 20260502113454 | 11 | 167 | 0.0 | 3.2 | 0.00 | 0.00 | 0.00 | 17 | 1017.7 |
| 20260502112952 | 12 | 165 | 0.0 | 3.2 | 0.00 | 0.00 | 0.00 | 17 | 1017.7 |
| 20260502112454 | 12 | 105 | 0.0 | 6.4 | 0.00 | 0.00 | 0.00 | 17 | 1017.7 |
| 20260502111956 | 11 | 135 | 0.0 | 6.4 | 0.00 | 0.00 | 0.00 | 17 | 1017.7 |
| 20260502110953 | 12 | 169 | 0.0 | 3.2 | 0.00 | 0.00 | 0.00 | 16 | 1017.8 |
| 20260502110452 | 12 | 187 | 0.0 | 3.2 | 0.00 | 0.00 | 0.00 | 16 | 1017.7 |
| 20260502105953 | 13 | 4 | 0.0 | 6.4 | 0.00 | 0.00 | 0.00 | 15 | 1017.8 |
| 20260502105453 | 13 | 98 | 1.6 | 6.4 | 0.00 | 0.00 | 0.00 | 15 | 1017.8 |
| 20260502104452 | 13 | 93 | 0.0 | 4.8 | 0.00 | 0.00 | 0.00 | 15 | 1017.8 |
| 20260502103952 | 13 | 103 | 1.6 | 8.0 | 0.00 | 0.00 | 0.00 | 15 | 1017.8 |
| 20260502103451 | 13 | 82 | 1.6 | 8.0 | 0.00 | 0.00 | 0.00 | 15 | 1017.8 |
| 20260502102451 | 12 | 105 | 1.6 | 6.4 | 0.00 | 0.00 | 0.00 | 15 | 1017.8 |
| 20260502101956 | 12 | 123 | 1.6 | 6.4 | 0.00 | 0.00 | 0.00 | 15 | 1017.8 |
| 20260502100950 | 12 | 193 | 1.6 | 9.7 | 0.00 | 0.00 | 0.00 | 15 | 1018.0 |
| 20260502100453 | 12 | 108 | 1.6 | 9.7 | 0.00 | 0.00 | 0.00 | 16 | 1018.0 |
| 20260502091440 | 12 | 151 | 0.0 | 4.8 | 0.00 | 0.00 | 0.00 | 14 | 1018.0 |
| 20260502090938 | 12 | 115 | 0.0 | 4.8 | 0.00 | 0.00 | 0.00 | 14 | 1018.1 |
| 20260502090442 | 12 | 162 | 0.0 | 1.6 | 0.00 | 0.00 | 0.00 | 14 | 1018.1 |
| 20260502071323 | 15 | 195 | 3.2 | 11.3 | 0.00 | 0.00 | 0.00 | 7 | 1018.2 |
| 20260502070819 | 15 | 126 | 4.8 | 14.5 | 0.00 | 0.00 | 0.00 | 7 | 1018.3 |
| 20260502070310 | 13 | 84 | 1.6 | 14.5 | 0.00 | 0.00 | 0.00 | 8 | 1018.2 |
| 20260502065805 | 13 | 178 | 0.0 | 3.2 | 0.00 | 0.00 | 0.00 | 9 | 1018.0 |
| 20260502064753 | 13 | 212 | 1.6 | 3.2 | 0.00 | 0.00 | 0.00 | 8 | 1017.8 |
| 20260502063742 | 14 | 155 | 0.0 | 4.8 | 0.00 | 0.00 | 0.00 | 8 | 1017.8 |
| 20260502063237 | 13 | 85 | 0.0 | 4.8 | 0.00 | 0.00 | 0.00 | 8 | 1017.7 |
| 20260502062729 | 13 | 186 | 1.6 | 4.8 | 0.00 | 0.00 | 0.00 | 8 | 1017.8 |
| 20260502062223 | 13 | 184 | 1.6 | 4.8 | 0.00 | 0.00 | 0.00 | 8 | 1017.7 |
| 20260502061717 | 13 | 210 | 1.6 | 4.8 | 0.00 | 0.00 | 0.00 | 8 | 1017.6 |
| 20260502060705 | 13 | 190 | 1.6 | 4.8 | 0.00 | 0.00 | 0.00 | 8 | 1017.6 |
| 20260502060158 | 13 | 203 | 1.6 | 3.2 | 0.00 | 0.00 | 0.00 | 8 | 1017.6 |
| 20260502055652 | 13 | 176 | 1.6 | 4.8 | 0.00 | 0.00 | 0.00 | 7 | 1017.5 |
| 20260502055147 | 14 | 182 | 1.6 | 4.8 | 0.00 | 0.00 | 0.00 | 7 | 1017.4 |
| 20260502054641 | 15 | 152 | 1.6 | 4.8 | 0.00 | 0.00 | 0.00 | 7 | 1017.4 |
| 20260502053629 | 14 | 168 | 1.6 | 4.8 | 0.00 | 0.00 | 0.00 | 7 | 1017.2 |
| 20260502053122 | 14 | 174 | 1.6 | 4.8 | 0.00 | 0.00 | 0.00 | 7 | 1017.3 |
| 20260502052617 | 15 | 184 | 1.6 | 4.8 | 0.00 | 0.00 | 0.00 | 6 | 1017.3 |
| 20260502052111 | 15 | 171 | 0.0 | 3.2 | 0.00 | 0.00 | 0.00 | 6 | 1017.3 |
| 20260502051603 | 15 | 103 | 0.0 | 3.2 | 0.00 | 0.00 | 0.00 | 6 | 1017.3 |
| 20260502050553 | 16 | 200 | 0.0 | 3.2 | 0.00 | 0.00 | 0.00 | 5 | 1017.0 |
| 20260502050047 | 16 | 245 | 1.6 | 3.2 | 0.00 | 0.00 | 0.00 | 5 | 1017.2 |
| 20260502045543 | 16 | 295 | 1.6 | 4.8 | 0.00 | 0.00 | 0.00 | 5 | 1017.2 |
| 20260502045034 | 16 | 269 | 1.6 | 4.8 | 0.00 | 0.00 | 0.00 | 5 | 1017.0 |
| 20260502044531 | 16 | 298 | 1.6 | 4.8 | 0.00 | 0.00 | 0.00 | 5 | 1017.0 |
| 20260502043519 | 16 | 237 | 1.6 | 6.4 | 0.00 | 0.00 | 0.00 | 5 | 1016.9 |
| 20260502043010 | 15 | 278 | 1.6 | 4.8 | 0.00 | 0.00 | 0.00 | 6 | 1017.0 |
| 20260502042509 | 15 | 234 | 1.6 | 3.2 | 0.00 | 0.00 | 0.00 | 6 | 1016.9 |
| 20260502041958 | 15 | 219 | 0.0 | 3.2 | 0.00 | 0.00 | 0.00 | 7 | 1016.8 |
| 20260502041452 | 14 | 219 | 0.0 | 3.2 | 0.00 | 0.00 | 0.00 | 7 | 1016.8 |
| 20260502040949 | 15 | 201 | 0.0 | 1.6 | 0.00 | 0.00 | 0.00 | 6 | 1016.7 |
| 20260502040449 | 15 | 174 | 0.0 | 1.6 | 0.00 | 0.00 | 0.00 | 6 | 1016.6 |
| 20260502035951 | 16 | 202 | 0.0 | 3.2 | 0.00 | 0.00 | 0.00 | 5 | 1016.6 |
| 20260502035454 | 16 | 265 | 0.0 | 3.2 | 0.00 | 0.00 | 0.00 | 5 | 1016.5 |
| 20260502034949 | 16 | 280 | 1.6 | 4.8 | 0.00 | 0.00 | 0.00 | 5 | 1016.5 |
| 20260502033948 | 16 | 291 | 0.0 | 4.8 | 0.00 | 0.00 | 0.00 | 5 | 1016.2 |
| 20260502033449 | 17 | 279 | 0.0 | 4.8 | 0.00 | 0.00 | 0.00 | 5 | 1016.2 |
| 20260502032947 | 17 | 307 | 0.0 | 4.8 | 0.00 | 0.00 | 0.00 | 5 | 1016.1 |
| 20260502032448 | 17 | 286 | 1.6 | 4.8 | 0.00 | 0.00 | 0.00 | 4 | 1016.0 |
| 20260502031445 | 17 | 252 | 1.6 | 3.2 | 0.00 | 0.00 | 0.00 | 5 | 1016.0 |
| 20260502030945 | 17 | 236 | 1.6 | 3.2 | 0.00 | 0.00 | 0.00 | 5 | 1015.9 |
| 20260502030444 | 18 | 288 | 1.6 | 6.4 | 0.00 | 0.00 | 0.00 | 4 | 1015.9 |
| 20260502025946 | 18 | 292 | 3.2 | 6.4 | 0.00 | 0.00 | 0.00 | 4 | 1015.8 |
| 20260502024947 | 18 | 254 | 3.2 | 8.0 | 0.00 | 0.00 | 0.00 | 4 | 1015.8 |
| 20260502024448 | 18 | 271 | 3.2 | 8.0 | 0.00 | 0.00 | 0.00 | 4 | 1015.8 |
| 20260502023945 | 18 | 271 | 3.2 | 8.0 | 0.00 | 0.00 | 0.00 | 4 | 1015.8 |
| 20260502023436 | 18 | 293 | 4.8 | 12.9 | 0.00 | 0.00 | 0.00 | 4 | 1015.6 |
| 20260502022929 | 19 | 329 | 4.8 | 12.9 | 0.00 | 0.00 | 0.00 | 4 | 1015.7 |
| 20260502022426 | 19 | 283 | 3.2 | 9.7 | 0.00 | 0.00 | 0.00 | 4 | 1015.6 |
| 20260502021924 | 19 | 290 | 3.2 | 9.7 | 0.00 | 0.00 | 0.00 | 4 | 1015.6 |
| 20260502021428 | 19 | 288 | 3.2 | 12.9 | 0.00 | 0.00 | 0.00 | 4 | 1015.6 |
| 20260502020921 | 19 | 301 | 4.8 | 14.5 | 0.00 | 0.00 | 0.00 | 4 | 1015.4 |
| 20260502015918 | 20 | 290 | 8.0 | 20.9 | 0.00 | 0.00 | 0.00 | 4 | 1015.3 |
| 20260502015419 | 20 | 330 | 6.4 | 20.9 | 0.00 | 0.00 | 0.00 | 4 | 1015.3 |
| 20260502014917 | 20 | 309 | 8.0 | 14.5 | 0.00 | 0.00 | 0.00 | 4 | 1015.3 |
| 20260502013916 | 21 | 20 | 9.7 | 17.7 | 0.00 | 0.00 | 0.00 | 3 | 1015.3 |
| 20260502013419 | 21 | 272 | 9.7 | 20.9 | 0.00 | 0.00 | 0.00 | 3 | 1015.2 |
| 20260502012919 | 21 | 327 | 9.7 | 20.9 | 0.00 | 0.00 | 0.00 | 3 | 1015.1 |
| 20260502012418 | 21 | 297 | 11.3 | 24.1 | 0.00 | 0.00 | 0.00 | 3 | 1015.2 |
| 20260502011419 | 22 | 276 | 9.7 | 20.9 | 0.00 | 0.00 | 0.00 | 3 | 1015.1 |
| 20260502010421 | 22 | 303 | 9.7 | 25.7 | 0.00 | 0.00 | 0.00 | 3 | 1015.1 |